Regional Weather Roundup
Issued by NWS

Home | Current Version | Previous Version | Text Only | Print | Product List | Glossary On
Versions: 1 2 3 4 5 6 7 8 9 10 11 12 13 14 15 16 17 18 19 20 21 22 23 24 25 26 27 28 29 30 31 32 33 34 35 36 37 38 39 40 41 42 43 44 45 46 47 48 49 50
000
ASUS46 KPQR 222210
RWROR

OREGON REGIONAL WEATHER ROUNDUP
NATIONAL WEATHER SERVICE PORTLAND OR
300 PM PDT FRI MAY 22 2015

NOTE: "FAIR" INDICATES FEW OR NO CLOUDS BELOW 12,000 FEET WITH
NO SIGNIFICANT WEATHER AND/OR OBSTRUCTIONS TO VISIBILITY.

ORZ001>013-222300-
NORTHWEST OREGON


CITY           SKY/WX    TMP DP  RH WIND       PRES   REMARKS
ASTORIA        CLOUDY    55  50  83 SW8       30.06F
NEWPORT        CLOUDY    54  52  94 NW6       30.12F
PORTLAND       CLOUDY    59  52  77 SW3       30.04F
VANCOUVER WA   CLOUDY    59  50  72 CALM      30.04S
SCAPPOOSE      CLOUDY    61  51  70 E6        30.03S
HILLSBORO      CLOUDY    59  51  75 CALM      30.03S
AURORA         LGT RAIN  58  54  86 S5        30.05S
MCMINNVILLE    CLOUDY    59  52  77 SW8       30.04F
SALEM          CLOUDY    61  51  70 W7        30.04S
CORVALLIS      CLOUDY    63  50  63 NW13      30.06S
EUGENE         CLOUDY    62  50  64 SW7       30.05S
$$

ORZ021-028-222300-
SOUTHWEST OREGON


CITY           SKY/WX    TMP DP  RH WIND       PRES   REMARKS
NORTH BEND     CLOUDY    57  54  88 N9        30.12S
BROOKINGS      SUNNY     64  55  72 N12       30.05F
ROSEBURG       CLOUDY    64  49  57 W10       30.05S
SEXTON SUMMIT  PTSUNNY   55  51  86 CALM      30.05S
MEDFORD        PTSUNNY   68  52  56 N7        29.98F
$$

ORZ014>016-041-222300-
COLUMBIA GORGE


CITY           SKY/WX    TMP DP  RH WIND       PRES   REMARKS
TROUTDALE      CLOUDY    59  51  75 CALM      30.03S
THE DALLES     PTSUNNY   71  50  47 NW20G31   29.88F
$$

ORZ029>031-041-044-049-050-061>064-502-503-505>511-222300-
EASTERN OREGON


CITY           SKY/WX    TMP DP  RH WIND       PRES   REMARKS
REDMOND        LGT RAIN  57  53  86 W14       29.93R
BEND           CLOUDY    63  48  59 NW7       29.93S
PRINEVILLE     CLOUDY    66  52  59 W10G17    29.91F
KLAMATH FALLS  PTSUNNY   60  47  61 W10       29.97F
LAKEVIEW       CLOUDY    61  48  63 NW8       29.97S
HERMISTON      CLOUDY    74  55  51 SW8       29.81F
PENDLETON      CLOUDY    69  54  58 SW9       29.85S
JOHN DAY       PTSUNNY   62  50  64 NW9       29.91R THUNDER
MEACHAM        CLOUDY    57  50  77 CALM      29.93S
LA GRANDE      CLOUDY    59  48  67 W15       29.88R
BAKER CITY     PTSUNNY   63  51  65 NW24G36   29.85F
BURNS          PTSUNNY   67  47  48 W7        29.89F
ROME             N/A     60  44  55 CALM      29.88R
ONTARIO        MOSUNNY   75  53  46 SE7       29.80F
$$



USA.gov is the U.S. government's official web portal to all federal, state and local government web resources and services.